Regional Weather Roundup
Issued by NWS Charleston, SC

Current Version | Previous Version | Graphics & Text | Print | Product List | Glossary On
Versions: 1 2 3 4 5 6 7 8 9 10 11 12 13 14 15 16 17 18 19 20 21 22 23 24 25 26 27 28 29 30 31 32 33 34 35 36 37 38 39 40 41 42 43 44 45 46 47 48 49 50
000
ASUS42 KCHS 191327
RWRCHS

Regional Weather Roundup
National Weather Service Charleston SC
900 AM EDT THU APR 19 2018

NOTE: "fair" indicates few or no clouds below 12,000 feet with no
significant weather and/or obstructions to visibility.

Not all stations are quality controlled. Use data with caution,
especially dewpoint observations.

SCZ027-030-031-034>040-042>050-191400-
...Southeast South Carolina...

CITY           SKY/WX    TMP DP  RH WIND       PRES   REMARKS
N Charleston   FAIR      70  60  70 SW14      29.93S
Waterfront Prk   N/A     68  61  78 SW7G14    29.79R
Mount Pleasant FAIR      70  63  78 W15       29.94S
Johns Island   FAIR      70  63  78 SW13G21   29.95S
Pinopolis        N/A     66  61  82 SW13      29.83R
Moncks Corner  FAIR      68  59  73 SW10G16   29.93S
Summerville    FAIR      68  61  77 SW7       29.94S
Beaufort MCAS  FAIR      70  63  78 W16G25    29.96S
Beaufort Arpt  FAIR      70  61  73 SW13G23   29.96F
Hilton Head Is SUNNY     68  61  77 SW12      30.00S
Walterboro     FAIR      70  61  73 W14G22    29.95S
Allendale      FAIR      70  61  73 VRB6G13   29.94S

...Southern Midlands and Pee Dee...

CITY           SKY/WX    TMP DP  RH WIND       PRES   REMARKS
Georgetown     FAIR      70  61  73 W16G22    29.91S
Kingstree      FAIR      68  59  73 SW8       29.89S
Orangeburg     FAIR      68  59  73 SW14G23   29.92R
Barnwell       FAIR      70  61  73 SW14G23   29.94S
Aiken          FAIR      68  59  73 SW15G25   29.95S
Manning        FAIR      66  55  68 W9G20     29.91R
Columbia       FAIR      70  60  70 SW14G26   29.88R
Sumter         FAIR      69  58  66 SW21      29.85R
Florence       FAIR      71  57  61 SW15G29   29.85R
Myrtle Beach   FAIR      71  58  63 W15G26    29.89R
N Myrtle Beach FAIR      71  56  58 W15G24    29.86R

$$

GAZ063-065-086>088-099>101-113>116-118-119-134>141-150-191400-
...Southeast Georgia...

CITY           SKY/WX    TMP DP  RH WIND       PRES   REMARKS
Savannah Arpt  FAIR      69  61  75 W18       29.99S
Hunter AAF     FAIR      70  62  76 SW13      29.96F
Fort Stewart   FAIR      70  61  73 W13       29.98F
Statesboro     FAIR      70  59  67 W14G23    29.98S
Sylvania       FAIR      70  64  83 W7        29.98S
Claxton        FAIR      71  63  78 SW10G17   30.00S

...CSRA, Central and far Southeast Georgia...

CITY           SKY/WX    TMP DP  RH WIND       PRES   REMARKS
Thomson        FAIR      68  60  74 NW13      29.99S
Augusta-Bush   FAIR      68  61  78 SW14G21   29.93R
Augusta-Daniel FAIR      68  60  75 W12G21    29.94R
Swainsboro     CLOUDY    68  63  83 W8G16     29.99F
Vidalia        CLOUDY    70  63  78 W10       30.01R
Eastman        CLOUDY    69  57  65 W10       30.05R
Hazlehurst     PTSUNNY   70  61  73 SW9G16    30.01S
Alma           FAIR      69  62  78 W13G22    30.03R
Waycross       FAIR      70  64  81 W12G21    30.04S
Jesup          FAIR      70  61  73 W9G21     30.03
Baxley         FAIR      68  64  88 W8G18     30.02S
Brunswick      FAIR      68  61  77 W10       30.04F
Saint Simons   FAIR      68  63  84 W13G20    30.04R

$$

SCZ027-028-034-036>038-045-046-048>050-GAZ119-141-191400-
...Lake and Supplemental Coastal Observations...

STATION/POSITION TIME  TEMP    WIND        PRES    WAVE   SWELL
                       AIR SEA DIR/SP/G            HT/PER HT/PER/DIR
                 (UTC) (F)     (DEG/KT/KT) (MB)    (FT/S) (FT/S/D)
Winyah Bay       1245   68     250/ 10     1012.0S
Lake Murray      1220   67     230/ 13/ 19 1010.8
ACE Basin NERRS  1245   68     350/  5       N/A
Fort Pulaski     1254   68 65  260/  9/ 13 1015.7F
Sapelo Island    1300   67     250/ 13     1017.0

$$

ANZ835-935-AMZ111-154-330-350-352-354-370-450-454-472-191400-
...C-MAN and Buoy Observations...

STATION/POSITION TIME  TEMP    WIND        PRES    WAVE   SWELL
                       AIR SEA DIR/SP/G            HT/PER HT/PER/DIR
                 (UTC) (F)     (DEG/KT/KT) (MB)    (FT/S) (FT/S/D)
Buoy 41004       1300   67 68  240/ 21/ 25 1014.2
Buoy 41008       1250   65 65  220/ 14/ 17 1016.3R   3/ 4   2/ 80/ 9
Folly Beach CMAN 1300   67     220/ 12/ 15 1014.6R
Capers Nearshore 1308   65 63  240/ 17/ 23 1013.6F
Fripp Nearshore  1308   65 64  240/ 12/ 17 1014.5S


STATION/POSITION TIME  TEMP    WIND        PRES    WAVE   SWELL
                       AIR SEA DIR/SP/G            HT/PER HT/PER/DIR
                 (UTC) (F)     (DEG/KT/KT) (MB)    (FT/S) (FT/S/D)
5E St. Marys GA  1300      65                N/A     2/ 4
Frying Pan Buoy  1300   67 66  230/ 23/ 29 1012.0
Buoy 41025       1300   70 69  230/ 27/ 35 1008.8
Cape Lookout NC  1300          230/ 15/ 22 1009.9R
Buoy 41002       1300   72 72  230/ 21/ 29 1016.9
Buoy 41010       1300   74 73  200/ 12/ 16 1020.0
St Augustine FL  1300   64 66  240/  7/  9 1019.8R


$$




USA.gov is the U.S. government's official web portal to all federal, state and local government web resources and services.